Miscellaneous Local Product
Issued by NWS North Platte, NE

Home | Current Version | Previous Version | Text Only | Print | Product List | Glossary On
Versions: 1 2 3 4 5 6 7 8 9 10 11 12 13 14 15 16 17 18 19 20 21 22 23 24 25 26 27 28 29 30 31 32 33 34 35 36 37 38 39 40 41 42 43 44 45 46 47 48 49 50
000
AXUS43 KLBF 261310
MISLBF


WESTERN AND NORTH CENTRAL NEBRASKA HOURLY WEATHER ROUNDUP
NATIONAL WEATHER SERVICE NORTH PLATTE NE
800 AM CDT SUN JUL 26 2015

***STATIONS NOT REPORTING VARIABLES SUCH AS SKY/WEATHER OR
PRESSURE ARE PROVIDED BY THE NEBRASKA DEPARTMENT OF
ROADS...RAWS...AND APRS NETWORKS...AND ARE NOT UNDER
NATIONAL WEATHER SERVICE QUALITY CONTROL***

...OBSERVATIONS IN AND NEAR THE EASTERN PANHANDLE OF NEBRASKA...

CITY           SKY/WX    TMP DP  RH WIND       PRES   REMARKS
PINE RIDGE     SUNNY     68  64  87 W5        29.95R
CHADRON        SUNNY     64  60  87 CALM      29.95R
ALLIANCE       SUNNY     65  63  93 SE6       29.99S
SIDNEY         SUNNY     69  68  96 SW6       30.03S
BIG SPRINGS      N/A     65  64  98 CALM        N/A
$$

...OBSERVATIONS IN NORTH CENTRAL NEBRASKA...

CITY           SKY/WX    TMP DP  RH WIND       PRES   REMARKS
VALENTINE      SUNNY     65  63  93 SW5       29.93R
THEDFORD       SUNNY     71  70  95 NW3       29.96S
AINSWORTH      SUNNY     69  67  96 W3        29.94R
O`NEILL        SUNNY     71  70  95 CALM      29.90S
ORD            PTSUNNY   69  67  93 S3        29.90R
BROKEN BOW     SUNNY     70  67  90 W5        29.93R FOG
SPRINGVIEW       N/A     68  65  92 CALM        N/A
CHAMBERS         N/A     78  73  86 CALM        N/A
EWING            N/A     71  69  95 CALM        N/A
$$

...OBSERVATIONS IN SOUTHWEST NEBRASKA AND FAR NORTHEAST COLORADO...

CITY           SKY/WX    TMP DP  RH WIND       PRES   REMARKS
WRAY           FAIR     N/A N/A N/A W3        29.98R HAZE
HOLYOKE        FAIR      68  64  88 W5        29.99S FOG
IMPERIAL       FOG       64  64 100 CALM      29.97R VSB 1/2
OGALLALA       FOG       67  66  99 CALM      29.98S VSB<1/4
NORTH PLATTE   CLOUDY    67  66  97 CALM      29.95F FOG
MCCOOK         FOG       65  65 100 CALM      29.95R VSB<1/4
LEXINGTON      CLOUDY    68  67  97 CALM      29.94S FOG
PAXTON           N/A     69  67  95 CALM        N/A
CALLAWAY         N/A     71  70  98 NW6         N/A
$$

...NORTH PLATTE AREA...

CITY           SKY/WX    TMP DP  RH WIND       PRES   REMARKS
AIRPORT        CLOUDY    67  66  97 CALM      29.95F FOG
DOWNTOWN         N/A     72  68  88 CALM        N/A
HILLCREST        N/A     69  67  94 CALM        N/A
$$

...SOME WEATHER OBSERVATIONS FROM AROUND THE REGION...

CITY           SKY/WX    TMP DP  RH WIND       PRES   REMARKS
DENVER         MOSUNNY   68  53  58 S5        30.11R
LARAMIE        SUNNY     53  40  61 E3        30.24R
CHEYENNE       SUNNY     61  45  55 W8        30.14S
SCOTTSBLUFF    SUNNY     68  63  84 E5        29.99R
RAPID CITY     MOSUNNY   68  63  84 CALM      29.94F
PIERRE         SUNNY     63  61  93 NE9       29.88F
WINNER         FAIR      65  62  90 E5        29.91S
SIOUX FALLS    CLOUDY    68  65  90 NW7       29.90R
OMAHA          PTSUNNY   71  69  93 S13       29.89R
GRAND ISLAND   CLOUDY    71  71 100 E3        29.93R FOG
KANSAS CITY    LGT RAIN  74  72  93 S3        29.89F
WICHITA        CLOUDY    79  68  69 S7        29.91R
HAYS           MOSUNNY   75  61  60 NW8       29.93R
LIBERAL        PTSUNNY   75  66  73 S9        29.97S
GOODLAND       SUNNY     70  66  87 S7        29.97S
$$



USA.gov is the U.S. government's official web portal to all federal, state and local government web resources and services.